Погода в Захедане

Иран     28°45′42″N   53°47′16″E
темп.,
°C
ветер,
м/с
пор.,
м/с
влажн.,
%
обл.,
%
осадки,
мм/ч
давл.,
гПа
погр.,
м
22 июня, вт
вт2201:30+27с32100 0.0 100613
04:30+25с22120 0.0 100712
07:30+27ссв22110 0.0 100860
10:30+34ссв5650 0.0 10082229
13:30+37ссв6730 0.0 10063327
16:30+38ссв8830 0.0 10034417
19:30+34св81230 0.0 1004262
22:30+28ссв2260 0.0 100721
23 июня, ср
ср2301:30+26ссз4470 0.0 100835
04:30+24с2290 0.0 100812
07:30+26с2280 0.0 101062
10:30+33ссв6640 0.0 10081670
13:30+36св5540 0.0 10063308
16:30+37ссв5520 0.0 10043971
19:30+34с5730 0.0 100492
22:30+29ссв4450 0.0 100742
24 июня, чт
чт2401:30+25сз1270 0.0 100711
04:30+24с2280 0.0 100711
07:30+27с2290 0.0 100938
10:30+34с2460 0.0 10071732
13:30+37ссв6540 0.0 10053517
16:30+38с4530 0.0 10034357
19:30+35ссв4540 0.0 100365
22:30+30з1180 0.0 100521
25 июня, пт
пт2501:30+26зсз11140 0.0 100611
04:30+25ссв11130 0.0 100611
07:30+28с2290 0.0 100826
10:30+35св3560 0.0 10062072
13:30+38ссв6640 0.0 10044095
16:30+39ссв4640 0.0 10014897
19:30+35св4550 0.0 100157
22:30+30с2270 0.0 100319
26 июня, сб
сб2601:30+28с3390 0.0 100528
04:30+25с32100 0.0 100611
07:30+27с23100 0.0 100775
10:30+34ссв6770 0.0 10062389
13:30+37ссв9940 0.0 10043437
16:30+38ссв8840 0.0 10014132
19:30+35св61050 0.0 1002170
22:30+29ссв2280 0.0 100413